| time (UTC) | temp C | wind direction | speed KPH | gust KPH | rain 1hr cm | rain 24hr cm | rain mn cm | humidity % | barometer mb |
| 20260505124321 | 11 | 236 | 6.4 | 17.7 | 0.00 | 0.00 | 0.00 | 75 | 1012.1 |
| 20260505123420 | 11 | 228 | 6.4 | 14.5 | 0.00 | 0.00 | 0.00 | 76 | 1012.1 |
| 20260505121421 | 11 | 181 | 1.6 | 6.4 | 0.00 | 0.00 | 0.00 | 77 | 1012.1 |
| 20260505120422 | 11 | 235 | 4.8 | 14.5 | 0.00 | 0.00 | 0.00 | 77 | 1012.1 |
| 20260505114521 | 10 | 229 | 4.8 | 9.7 | 0.00 | 0.00 | 0.00 | 78 | 1011.9 |
| 20260505113520 | 10 | 239 | 3.2 | 11.3 | 0.00 | 0.00 | 0.00 | 79 | 1011.7 |
| 20260505110520 | 9 | 228 | 6.4 | 12.9 | 0.00 | 0.00 | 0.00 | 81 | 1011.8 |
| 20260505101523 | 8 | 226 | 4.8 | 14.5 | 0.00 | 0.00 | 0.00 | 84 | 1011.8 |
| 20260505100620 | 8 | 231 | 6.4 | 14.5 | 0.00 | 0.00 | 0.00 | 84 | 1011.6 |
| 20260505095621 | 8 | 226 | 8.0 | 16.1 | 0.00 | 0.00 | 0.00 | 84 | 1011.4 |
| 20260505094621 | 7 | 227 | 3.2 | 11.3 | 0.00 | 0.00 | 0.00 | 84 | 1011.4 |
| 20260505093622 | 8 | 239 | 3.2 | 9.7 | 0.00 | 0.00 | 0.00 | 84 | 1011.3 |
| 20260505092622 | 8 | 237 | 3.2 | 9.7 | 0.00 | 0.00 | 0.00 | 84 | 1011.2 |
| 20260505091621 | 8 | 261 | 0.0 | 1.6 | 0.00 | 0.00 | 0.00 | 84 | 1011.3 |
| 20260505090620 | 8 | 235 | 1.6 | 6.4 | 0.00 | 0.00 | 0.00 | 84 | 1011.3 |
| 20260505085623 | 8 | 228 | 4.8 | 11.3 | 0.00 | 0.00 | 0.00 | 83 | 1011.2 |
| 20260505084721 | 8 | 226 | 8.0 | 16.1 | 0.00 | 0.00 | 0.00 | 82 | 1011.2 |
| 20260505083720 | 8 | 219 | 4.8 | 9.7 | 0.00 | 0.00 | 0.00 | 83 | 1011.2 |
| 20260505081723 | 8 | 268 | 3.2 | 12.9 | 0.00 | 0.00 | 0.00 | 82 | 1011.0 |
| 20260505080821 | 8 | 242 | 4.8 | 11.3 | 0.00 | 0.00 | 0.00 | 81 | 1011.2 |
| 20260505074822 | 8 | 228 | 3.2 | 6.4 | 0.00 | 0.00 | 0.00 | 81 | 1011.1 |
| 20260505073821 | 8 | 238 | 3.2 | 11.3 | 0.00 | 0.00 | 0.00 | 81 | 1011.1 |
| 20260505072919 | 8 | 235 | 3.2 | 9.7 | 0.00 | 0.00 | 0.00 | 80 | 1011.2 |
| 20260505071921 | 8 | 230 | 4.8 | 11.3 | 0.00 | 0.00 | 0.00 | 80 | 1011.1 |
| 20260505071020 | 8 | 219 | 6.4 | 12.9 | 0.00 | 0.00 | 0.00 | 80 | 1011.2 |
| 20260505065020 | 8 | 225 | 3.2 | 4.8 | 0.00 | 0.00 | 0.00 | 81 | 1011.1 |
| 20260505064021 | 8 | 225 | 3.2 | 8.0 | 0.00 | 0.00 | 0.00 | 80 | 1011.1 |
| 20260505062022 | 8 | 226 | 4.8 | 11.3 | 0.00 | 0.00 | 0.00 | 80 | 1010.9 |
| 20260505061020 | 8 | 229 | 6.4 | 12.9 | 0.00 | 0.00 | 0.00 | 80 | 1010.9 |
| 20260505060120 | 8 | 230 | 4.8 | 11.3 | 0.00 | 0.00 | 0.00 | 80 | 1010.9 |
| 20260505055121 | 8 | 221 | 3.2 | 8.0 | 0.00 | 0.00 | 0.00 | 80 | 1010.8 |
| 20260505054120 | 8 | 211 | 3.2 | 6.4 | 0.00 | 0.00 | 0.00 | 81 | 1010.9 |
| 20260505053120 | 8 | 221 | 6.4 | 12.9 | 0.00 | 0.00 | 0.00 | 81 | 1010.8 |
| 20260505052122 | 8 | 228 | 1.6 | 6.4 | 0.00 | 0.00 | 0.00 | 80 | 1010.7 |
| 20260505051220 | 8 | 227 | 4.8 | 9.7 | 0.00 | 0.00 | 0.00 | 81 | 1010.6 |
| 20260505040221 | 8 | 223 | 3.2 | 6.4 | 0.00 | 0.00 | 0.00 | 81 | 1010.6 |
| 20260505035227 | 8 | 225 | 0.0 | 3.2 | 0.00 | 0.00 | 0.00 | 81 | 1010.5 |
| 20260505034326 | 8 | 225 | 1.6 | 4.8 | 0.00 | 0.00 | 0.00 | 81 | 1010.4 |
| 20260505033326 | 7 | 224 | 1.6 | 3.2 | 0.00 | 0.00 | 0.00 | 81 | 1010.5 |
| 20260505031328 | 8 | 225 | 0.0 | 0.0 | 0.00 | 0.00 | 0.00 | 79 | 1010.6 |
| 20260505030425 | 8 | 225 | 0.0 | 0.0 | 0.00 | 0.00 | 0.00 | 79 | 1010.4 |
| 20260505025428 | 8 | 180 | 1.6 | 4.8 | 0.00 | 0.00 | 0.00 | 78 | 1010.6 |
| 20260505024525 | 8 | 225 | 1.6 | 6.4 | 0.00 | 0.00 | 0.00 | 77 | 1010.8 |
| 20260505023525 | 8 | 224 | 3.2 | 6.4 | 0.00 | 0.00 | 0.00 | 78 | 1010.7 |
| 20260505022525 | 8 | 225 | 0.0 | 1.6 | 0.00 | 0.00 | 0.00 | 77 | 1010.7 |
| 20260505021526 | 8 | 204 | 4.8 | 8.0 | 0.00 | 0.00 | 0.00 | 78 | 1010.5 |
| 20260505020524 | 8 | 216 | 1.6 | 3.2 | 0.00 | 0.00 | 0.00 | 78 | 1010.6 |
| 20260505015528 | 8 | 225 | 0.0 | 0.0 | 0.00 | 0.00 | 0.00 | 79 | 1010.6 |
| 20260505015426 | 8 | 225 | 1.6 | 3.2 | 0.00 | 0.00 | 0.00 | 79 | 1010.6 |
| 20260505014525 | 8 | 225 | 1.6 | 3.2 | 0.00 | 0.00 | 0.00 | 79 | 1010.6 |
| 20260505013525 | 8 | 247 | 0.0 | 3.2 | 0.00 | 0.00 | 0.00 | 78 | 1010.6 |
| 20260505011526 | 8 | 225 | 0.0 | 1.6 | 0.00 | 0.00 | 0.00 | 78 | 1010.4 |
| 20260505010526 | 8 | 225 | 0.0 | 0.0 | 0.00 | 0.00 | 0.00 | 77 | 1010.3 |
| 20260505004526 | 9 | 207 | 1.6 | 3.2 | 0.00 | 0.00 | 0.00 | 76 | 1010.1 |
| 20260505003526 | 9 | 231 | 1.6 | 6.4 | 0.00 | 0.00 | 0.00 | 75 | 1009.9 |
| 20260505002525 | 10 | 221 | 8.0 | 17.7 | 0.00 | 0.00 | 0.00 | 73 | 1009.9 |
| 20260505001524 | 10 | 265 | 1.6 | 9.7 | 0.00 | 0.00 | 0.00 | 72 | 1009.7 |
| 20260505000525 | 10 | 234 | 3.2 | 9.7 | 0.00 | 0.00 | 0.00 | 71 | 1009.4 |
| 20260504234624 | 11 | 226 | 1.6 | 6.4 | 0.00 | 0.00 | 0.00 | 72 | 1009.1 |
| 20260504233626 | 11 | 234 | 1.6 | 3.2 | 0.00 | 0.00 | 0.00 | 70 | 1008.9 |
| 20260504230625 | 13 | 247 | 0.0 | 3.2 | 0.00 | 0.00 | 0.00 | 66 | 1008.6 |
| 20260504225627 | 13 | 230 | 1.6 | 4.8 | 0.00 | 0.00 | 0.00 | 64 | 1008.5 |
| 20260504224724 | 13 | 247 | 4.8 | 9.7 | 0.00 | 0.00 | 0.00 | 63 | 1008.3 |
| 20260504221824 | 14 | 270 | 4.8 | 11.3 | 0.00 | 0.00 | 0.00 | 61 | 1008.4 |
| 20260504220828 | 14 | 258 | 1.6 | 9.7 | 0.00 | 0.00 | 0.00 | 61 | 1008.2 |
| 20260504215924 | 14 | 255 | 4.8 | 9.7 | 0.00 | 0.00 | 0.00 | 61 | 1007.9 |
| 20260504214925 | 14 | 253 | 6.4 | 12.9 | 0.00 | 0.00 | 0.00 | 61 | 1007.9 |
| 20260504213928 | 14 | 234 | 1.6 | 3.2 | 0.00 | 0.00 | 0.00 | 61 | 1007.9 |
| 20260504212926 | 14 | 261 | 3.2 | 8.0 | 0.00 | 0.00 | 0.00 | 62 | 1007.8 |
| 20260504211927 | 15 | 260 | 0.0 | 4.8 | 0.00 | 0.00 | 0.00 | 61 | 1007.8 |
| 20260504210927 | 15 | 232 | 1.6 | 8.0 | 0.00 | 0.00 | 0.00 | 61 | 1007.8 |
| 20260504205924 | 15 | 258 | 3.2 | 8.0 | 0.00 | 0.00 | 0.00 | 61 | 1007.8 |
| 20260504204927 | 15 | 215 | 6.4 | 12.9 | 0.00 | 0.00 | 0.00 | 61 | 1007.8 |
| 20260504202124 | 14 | 215 | 4.8 | 14.5 | 0.00 | 0.00 | 0.00 | 63 | 1007.6 |
| 20260504201126 | 13 | 219 | 4.8 | 9.7 | 0.00 | 0.03 | 0.00 | 64 | 1007.7 |
| 20260504195324 | 12 | 225 | 3.2 | 8.0 | 0.00 | 0.03 | 0.00 | 67 | 1007.7 |
| 20260504194328 | 12 | 229 | 8.0 | 11.3 | 0.00 | 0.05 | 0.00 | 68 | 1007.8 |
| 20260504193327 | 11 | 238 | 6.4 | 11.3 | 0.00 | 0.05 | 0.00 | 69 | 1007.9 |
| 20260504192326 | 11 | 229 | 4.8 | 9.7 | 0.00 | 0.05 | 0.00 | 71 | 1007.9 |
| 20260504191327 | 11 | 237 | 3.2 | 6.4 | 0.00 | 0.05 | 0.00 | 73 | 1008.1 |
| 20260504190325 | 11 | 225 | 6.4 | 12.9 | 0.00 | 0.08 | 0.00 | 74 | 1008.3 |
| 20260504190228 | 10 | 203 | 1.6 | 6.4 | 0.00 | 0.08 | 0.00 | 75 | 1008.3 |
| 20260504184324 | 11 | 225 | 4.8 | 11.3 | 0.00 | 0.10 | 0.00 | 74 | 1008.7 |
| 20260504183326 | 11 | 247 | 0.0 | 3.2 | 0.00 | 0.13 | 0.00 | 73 | 1008.8 |
| 20260504182424 | 11 | 274 | 1.6 | 4.8 | 0.00 | 0.15 | 0.00 | 71 | 1008.7 |
| 20260504180426 | 10 | 250 | 1.6 | 4.8 | 0.00 | 0.20 | 0.00 | 69 | 1008.5 |
| 20260504175425 | 10 | 225 | 4.8 | 11.3 | 0.00 | 0.23 | 0.00 | 70 | 1008.3 |
| 20260504174427 | 10 | 233 | 1.6 | 6.4 | 0.00 | 0.28 | 0.00 | 71 | 1008.3 |
| 20260504173524 | 10 | 234 | 3.2 | 12.9 | 0.00 | 0.30 | 0.00 | 71 | 1008.3 |
| 20260504172525 | 10 | 238 | 6.4 | 14.5 | 0.00 | 0.33 | 0.00 | 70 | 1008.0 |
| 20260504171525 | 11 | 235 | 8.0 | 16.1 | 0.00 | 0.36 | 0.00 | 65 | 1008.1 |
| 20260504170625 | 12 | 233 | 3.2 | 11.3 | 0.00 | 0.36 | 0.00 | 63 | 1007.9 |
| 20260504150725 | 11 | 227 | 6.4 | 11.3 | 0.00 | 0.76 | 0.00 | 56 | 1009.0 |